Home > Weather > Genoa > Past weeks

Flag for Italy Weather for the Past 2 Weeks in Genoa, Italy

Now
46 °F

Passing clouds.


Feels Like: 44 °F
Forecast: 41 / 52 °F
Wind: 6 mph from Northeast

Location: Genova / Sestri

Current Time: Feb 11, 2016 at 6:43:45 AM

Latest Report: Feb 11, 2016 at 5:50 AM


Visibility: N/A

Pressure: 29.74 "Hg

Humidity: 25%

Dew point: 12 °F

Location of GenoaLocation

Historic Weather in Genoa — Graph

°F

Genoa Temperature Yesterday

Maximum temperature yesterday: 59 °F (at 2:20 PM)
Minimum temperature yesterday: 43 °F (at 9:20 PM)
Average temperature yesterday: 53 °F

High & Low Weather Summary for the Past Weeks

 TemperatureHumidityPressure
High59 °F (Jan 30, 1:50 PM)94% (Jan 27, 2:20 PM)30.48 "Hg (Jan 27, 2:20 PM)
Low43 °F (Feb 7, 3:20 PM)14% (Feb 10, 12:20 PM)29.36 "Hg (Feb 10, 12:50 AM)
Average54 °F72%30.13 "Hg
* Reported Jan 27 5:20 AM — Feb 11 5:20 AM, Genoa, Weather by CustomWeather, © 2016

Note: Actual official high and low records may vary slightly from our data, if they occured in-between our weather recording intervals... More about our weather records

Advertising

Genoa Weather History for the Previous 24 Hours

 ConditionsComfort  
Time TempWeatherWind HumidityBarometerVisibility
5:20 AM
Thu, Feb 11
43 °FClear.5 mph42%29.71 "Hg10 mi
4:50 AM45 °FPassing clouds.5 mph29%29.71 "HgN/A
4:20 AM45 °FClear.2 mph39%29.68 "Hg10 mi
3:50 AM45 °FClear.2 mph29%29.68 "Hg10 mi
3:20 AM46 °FPassing clouds.8 mph27%29.68 "HgN/A
2:50 AM46 °FPassing clouds.8 mph27%29.68 "HgN/A
2:20 AM46 °FPassing clouds.6 mph27%29.68 "HgN/A
1:50 AM48 °FPassing clouds.7 mph27%29.65 "HgN/A
1:20 AM46 °FClear.2 mph29%29.65 "Hg10 mi
12:50 AM48 °FClear.2 mph25%29.65 "Hg10 mi
11:50 PM
Wed, Feb 10
46 °FClear.2 mph29%29.65 "Hg10 mi
10:50 PM48 °FPassing clouds.6 mph27%29.65 "HgN/A
9:50 PM46 °FClear.2 mph34%29.65 "Hg10 mi
9:20 PM43 °FPassing clouds.5 mph39%29.65 "HgN/A
8:50 PM46 °FClear.2 mph32%29.65 "Hg10 mi
8:20 PM48 °FClear.2 mph27%29.62 "Hg10 mi
7:50 PM50 °FPassing clouds.3 mph25%29.62 "HgN/A
7:20 PM52 °FPassing clouds.3 mph26%29.62 "HgN/A
6:50 PM52 °FPassing clouds.6 mph24%29.62 "HgN/A
6:20 PM52 °FPassing clouds.3 mph32%29.59 "HgN/A
5:50 PM55 °FClear.6 mph15%29.59 "Hg10 mi
5:20 PM57 °FSunny.8 mph15%29.56 "Hg10 mi
4:50 PM55 °FSunny.12 mph21%29.56 "Hg10 mi
4:20 PM57 °FSunny.13 mph21%29.56 "Hg10 mi
3:50 PM57 °FPassing clouds.8 mph21%29.56 "HgN/A
3:20 PM57 °FPassing clouds.9 mph18%29.53 "HgN/A
2:50 PM59 °FSunny.15 mph16%29.53 "Hg10 mi
2:20 PM59 °FPassing clouds.12 mph18%29.53 "HgN/A
1:50 PM57 °FPassing clouds.15 mph20%29.56 "HgN/A
1:20 PM57 °FPassing clouds.14 mph14%29.56 "HgN/A
12:50 PM57 °FPassing clouds.15 mph21%29.56 "HgN/A
12:20 PM57 °FPassing clouds.16 mph14%29.53 "HgN/A
11:50 AM57 °FSunny.20 mph20%29.53 "Hg10 mi
11:20 AM57 °FSunny.16 mph17%29.53 "Hg10 mi
10:50 AM55 °FPassing clouds.16 mph18%29.53 "HgN/A
10:20 AM55 °FSunny.15 mph18%29.50 "Hg10 mi
9:50 AM54 °FSunny.18 mph22%29.50 "Hg10 mi
9:20 AM54 °FSunny.24 mph19%29.47 "Hg10 mi
8:50 AM52 °FSunny.15 mph24%29.47 "Hg10 mi
8:20 AM48 °FSunny.14 mph37%29.47 "Hg10 mi
7:50 AM52 °FPassing clouds.9 mph24%29.45 "HgN/A
7:20 AM52 °FPassing clouds.8 mph19%29.45 "HgN/A
6:50 AM52 °FClear.9 mph24%29.42 "Hg10 mi
6:20 AM52 °FPassing clouds.9 mph24%29.42 "HgN/A
Weather by CustomWeather, © 2016

See weather overviewHow to use our weather pages